Year,Month,Day,Hour,Minute,Value (Times are PST for temperature in C)
2006,05,31,00,00,13.20
2006,05,31,00,01,13.20
2006,05,31,00,02,13.20
2006,05,31,00,03,13.10
2006,05,31,00,04,13.10
2006,05,31,00,05,13.10
2006,05,31,00,06,13.10
2006,05,31,00,07,13.10
2006,05,31,00,08,13.00
2006,05,31,00,09,13.00
2006,05,31,00,10,13.00
2006,05,31,00,11,13.00
2006,05,31,00,12,13.00
2006,05,31,00,13,12.90
2006,05,31,00,14,12.90
2006,05,31,00,15,12.90
2006,05,31,00,16,12.90
2006,05,31,00,17,12.80
2006,05,31,00,18,12.80
2006,05,31,00,19,12.80
2006,05,31,00,20,12.80
2006,05,31,00,21,12.80
2006,05,31,00,22,12.80
2006,05,31,00,23,12.80
2006,05,31,00,24,12.70
2006,05,31,00,25,12.70
2006,05,31,00,26,12.70
2006,05,31,00,27,12.70
2006,05,31,00,28,12.60
2006,05,31,00,29,12.60
2006,05,31,00,30,12.60
2006,05,31,00,31,12.50
2006,05,31,00,32,12.40
2006,05,31,00,33,12.40
2006,05,31,00,34,12.30
2006,05,31,00,35,12.30
2006,05,31,00,36,12.30
2006,05,31,00,37,12.20
2006,05,31,00,38,12.20
2006,05,31,00,39,12.20
2006,05,31,00,40,12.20
2006,05,31,00,41,12.20
2006,05,31,00,42,12.20
2006,05,31,00,43,12.20
2006,05,31,00,44,12.20
2006,05,31,00,45,12.20
2006,05,31,00,46,12.20
2006,05,31,00,47,12.20
2006,05,31,00,48,12.30
2006,05,31,00,49,12.30
2006,05,31,00,50,12.20
2006,05,31,00,51,12.10
2006,05,31,00,52,12.10
2006,05,31,00,53,12.00
2006,05,31,00,54,12.00
2006,05,31,00,55,11.90
2006,05,31,00,56,11.90
2006,05,31,00,57,11.90
2006,05,31,00,58,11.90
2006,05,31,00,59,11.80
2006,05,31,01,00,11.90
2006,05,31,01,01,11.90
2006,05,31,01,02,11.90
2006,05,31,01,03,11.90
2006,05,31,01,04,11.90
2006,05,31,01,05,11.90
2006,05,31,01,06,11.90
2006,05,31,01,07,11.90
2006,05,31,01,08,11.90
2006,05,31,01,09,11.90
2006,05,31,01,10,11.90
2006,05,31,01,11,11.90
2006,05,31,01,12,11.90
2006,05,31,01,13,11.90
2006,05,31,01,14,11.90
2006,05,31,01,15,11.90
2006,05,31,01,16,11.90
2006,05,31,01,17,11.80
2006,05,31,01,18,11.80
2006,05,31,01,19,11.80
2006,05,31,01,20,11.80
2006,05,31,01,21,11.80
2006,05,31,01,22,11.80
2006,05,31,01,23,11.70
2006,05,31,01,24,11.70
2006,05,31,01,25,11.70
2006,05,31,01,26,11.70
2006,05,31,01,27,11.70
2006,05,31,01,28,11.70
2006,05,31,01,29,11.70
2006,05,31,01,30,11.70
2006,05,31,01,31,11.70
2006,05,31,01,32,11.70
2006,05,31,01,33,11.70
2006,05,31,01,34,11.70
2006,05,31,01,35,11.70
2006,05,31,01,36,11.70
2006,05,31,01,37,11.70
2006,05,31,01,38,11.80
2006,05,31,01,39,11.80
2006,05,31,01,40,11.80
2006,05,31,01,41,11.90
2006,05,31,01,42,11.90
2006,05,31,01,43,11.90
2006,05,31,01,44,11.90
2006,05,31,01,45,11.80
2006,05,31,01,46,11.80
2006,05,31,01,47,11.80
2006,05,31,01,48,11.80
2006,05,31,01,49,11.80
2006,05,31,01,50,11.70
2006,05,31,01,51,11.70
2006,05,31,01,52,11.70
2006,05,31,01,53,11.60
2006,05,31,01,54,11.60
2006,05,31,01,55,11.60
2006,05,31,01,56,11.70
2006,05,31,01,57,11.70
2006,05,31,01,58,11.60
2006,05,31,01,59,11.60
2006,05,31,02,00,11.60
2006,05,31,02,01,11.60
2006,05,31,02,02,11.60
2006,05,31,02,03,11.60
2006,05,31,02,04,11.60
2006,05,31,02,05,11.60
2006,05,31,02,06,11.60
2006,05,31,02,07,11.60
2006,05,31,02,08,11.60
2006,05,31,02,09,11.40
2006,05,31,02,10,11.40
2006,05,31,02,11,11.40
2006,05,31,02,12,11.40
2006,05,31,02,13,11.40
2006,05,31,02,14,11.40
2006,05,31,02,15,11.40
2006,05,31,02,16,11.40
2006,05,31,02,17,11.40
2006,05,31,02,18,11.30
2006,05,31,02,19,11.30
2006,05,31,02,20,11.30
2006,05,31,02,21,11.30
2006,05,31,02,22,11.30
2006,05,31,02,23,11.30
2006,05,31,02,24,11.30
2006,05,31,02,25,11.30
2006,05,31,02,26,11.30
2006,05,31,02,27,11.30
2006,05,31,02,28,11.20
2006,05,31,02,29,11.20
2006,05,31,02,30,11.20
2006,05,31,02,31,11.20
2006,05,31,02,32,11.10
2006,05,31,02,33,11.10
2006,05,31,02,34,11.00
2006,05,31,02,35,10.90
2006,05,31,02,36,10.90
2006,05,31,02,37,10.80
2006,05,31,02,38,10.70
2006,05,31,02,39,10.70
2006,05,31,02,40,10.70
2006,05,31,02,41,10.70
2006,05,31,02,42,10.70
2006,05,31,02,43,10.90
2006,05,31,02,44,11.00
2006,05,31,02,45,11.10
2006,05,31,02,46,11.20
2006,05,31,02,47,11.20
2006,05,31,02,48,11.20
2006,05,31,02,49,11.20
2006,05,31,02,50,11.20
2006,05,31,02,51,11.30
2006,05,31,02,52,11.30
2006,05,31,02,53,11.30
2006,05,31,02,54,11.30
2006,05,31,02,55,11.30
2006,05,31,02,56,11.40
2006,05,31,02,57,11.40
2006,05,31,02,58,11.40
2006,05,31,02,59,11.30
2006,05,31,03,00,11.30
2006,05,31,03,01,11.30
2006,05,31,03,02,11.30
2006,05,31,03,03,11.30
2006,05,31,03,04,11.20
2006,05,31,03,05,11.20
2006,05,31,03,06,11.20
2006,05,31,03,07,11.10
2006,05,31,03,08,11.10
2006,05,31,03,09,11.10
2006,05,31,03,10,11.20
2006,05,31,03,11,11.30
2006,05,31,03,12,11.40
2006,05,31,03,13,11.50
2006,05,31,03,14,11.60
2006,05,31,03,15,11.60
2006,05,31,03,16,11.70
2006,05,31,03,17,11.80
2006,05,31,03,18,11.80
2006,05,31,03,19,11.80
2006,05,31,03,20,11.80
2006,05,31,03,21,11.80
2006,05,31,03,22,11.80
2006,05,31,03,23,11.70
2006,05,31,03,24,11.70
2006,05,31,03,25,11.60
2006,05,31,03,26,11.60
2006,05,31,03,27,11.60
2006,05,31,03,28,11.60
2006,05,31,03,29,11.60
2006,05,31,03,30,11.60
2006,05,31,03,31,11.60
2006,05,31,03,32,11.60
2006,05,31,03,33,11.60
2006,05,31,03,34,11.60
2006,05,31,03,35,11.60
2006,05,31,03,36,11.60
2006,05,31,03,37,11.60
2006,05,31,03,38,11.60
2006,05,31,03,39,11.60
2006,05,31,03,40,11.60
2006,05,31,03,41,11.60
2006,05,31,03,42,11.60
2006,05,31,03,43,11.60
2006,05,31,03,44,11.50
2006,05,31,03,45,11.40
2006,05,31,03,46,11.40
2006,05,31,03,47,11.40
2006,05,31,03,48,11.40
2006,05,31,03,49,11.40
2006,05,31,03,50,11.30
2006,05,31,03,51,11.30
2006,05,31,03,52,11.30
2006,05,31,03,53,11.30
2006,05,31,03,54,11.40
2006,05,31,03,55,11.40
2006,05,31,03,56,11.40
2006,05,31,03,57,11.60
2006,05,31,03,58,11.70
2006,05,31,03,59,11.80
2006,05,31,04,00,11.90
2006,05,31,04,01,12.00
2006,05,31,04,02,12.00
2006,05,31,04,03,12.00
2006,05,31,04,04,12.10
2006,05,31,04,05,12.10
2006,05,31,04,06,12.10
2006,05,31,04,07,12.10
2006,05,31,04,08,12.10
2006,05,31,04,09,12.10
2006,05,31,04,10,12.10
2006,05,31,04,11,12.10
2006,05,31,04,12,12.20
2006,05,31,04,13,12.30
2006,05,31,04,14,12.30
2006,05,31,04,15,12.30
2006,05,31,04,16,12.30
2006,05,31,04,17,12.30
2006,05,31,04,18,12.40
2006,05,31,04,19,12.40
2006,05,31,04,20,12.40
2006,05,31,04,21,12.50
2006,05,31,04,22,12.50
2006,05,31,04,23,12.50
2006,05,31,04,24,12.50
2006,05,31,04,25,12.50
2006,05,31,04,26,12.50
2006,05,31,04,27,12.50
2006,05,31,04,28,12.50
2006,05,31,04,29,12.50
2006,05,31,04,30,12.50
2006,05,31,04,31,12.50
2006,05,31,04,32,12.50
2006,05,31,04,33,12.50
2006,05,31,04,34,12.50
2006,05,31,04,35,12.60
2006,05,31,04,36,12.70
2006,05,31,04,37,12.70
2006,05,31,04,38,12.70
2006,05,31,04,39,12.70
2006,05,31,04,40,12.70
2006,05,31,04,41,12.70
2006,05,31,04,42,12.70
2006,05,31,04,43,12.70
2006,05,31,04,44,12.70
2006,05,31,04,45,12.70
2006,05,31,04,46,12.70
2006,05,31,04,47,12.60
2006,05,31,04,48,12.60
2006,05,31,04,49,12.60
2006,05,31,04,50,12.50
2006,05,31,04,51,12.40
2006,05,31,04,52,12.40
2006,05,31,04,53,12.30
2006,05,31,04,54,12.30
2006,05,31,04,55,12.30
2006,05,31,04,56,12.30
2006,05,31,04,57,12.20
2006,05,31,04,58,12.20
2006,05,31,04,59,12.20
2006,05,31,05,00,12.20
2006,05,31,05,01,12.20
2006,05,31,05,02,12.20
2006,05,31,05,03,12.30
2006,05,31,05,04,12.30
2006,05,31,05,05,12.40
2006,05,31,05,06,12.50
2006,05,31,05,07,12.50
2006,05,31,05,08,12.60
2006,05,31,05,09,12.70
2006,05,31,05,10,12.80
2006,05,31,05,11,12.80
2006,05,31,05,12,12.90
2006,05,31,05,13,13.00
2006,05,31,05,14,13.00
2006,05,31,05,15,13.00
2006,05,31,05,16,13.10
2006,05,31,05,17,13.10
2006,05,31,05,18,13.10
2006,05,31,05,19,13.10
2006,05,31,05,20,13.20
2006,05,31,05,21,13.20
2006,05,31,05,22,13.30
2006,05,31,05,23,13.30
2006,05,31,05,24,13.30
2006,05,31,05,25,13.40
2006,05,31,05,26,13.40
2006,05,31,05,27,13.40
2006,05,31,05,28,13.40
2006,05,31,05,29,13.40
2006,05,31,05,30,13.40
2006,05,31,05,31,13.40
2006,05,31,05,32,13.40
2006,05,31,05,33,13.40
2006,05,31,05,34,13.40
2006,05,31,05,35,13.40
2006,05,31,05,36,13.40
2006,05,31,05,37,13.40
2006,05,31,05,38,13.50
2006,05,31,05,39,13.50
2006,05,31,05,40,13.50
2006,05,31,05,41,13.50
2006,05,31,05,42,13.50
2006,05,31,05,43,13.50
2006,05,31,05,44,13.50
2006,05,31,05,45,13.50
2006,05,31,05,46,13.50
2006,05,31,05,47,13.50
2006,05,31,05,48,13.50
2006,05,31,05,49,13.50
2006,05,31,05,50,13.40
2006,05,31,05,51,13.40
2006,05,31,05,52,13.40
2006,05,31,05,53,13.30
2006,05,31,05,54,13.30
2006,05,31,05,55,13.30
2006,05,31,05,56,13.30
2006,05,31,05,57,13.30
2006,05,31,05,58,13.30
2006,05,31,05,59,13.30
2006,05,31,06,00,13.30
2006,05,31,06,01,13.30
2006,05,31,06,02,13.30
2006,05,31,06,03,13.30
2006,05,31,06,04,13.30
2006,05,31,06,05,13.20
2006,05,31,06,06,13.20
2006,05,31,06,07,13.20
2006,05,31,06,08,13.20
2006,05,31,06,09,13.10
2006,05,31,06,10,13.10
2006,05,31,06,11,13.10
2006,05,31,06,12,13.00
2006,05,31,06,13,13.00
2006,05,31,06,14,13.10
2006,05,31,06,15,13.10
2006,05,31,06,16,13.10
2006,05,31,06,17,13.20
2006,05,31,06,18,13.20
2006,05,31,06,19,13.30
2006,05,31,06,20,13.30
2006,05,31,06,21,13.30
2006,05,31,06,22,13.30
2006,05,31,06,23,13.30
2006,05,31,06,24,13.30
2006,05,31,06,25,13.30
2006,05,31,06,26,13.30
2006,05,31,06,27,13.30
2006,05,31,06,28,13.30
2006,05,31,06,29,13.30
2006,05,31,06,30,13.30
2006,05,31,06,31,13.40
2006,05,31,06,32,13.40
2006,05,31,06,33,13.40
2006,05,31,06,34,13.50
2006,05,31,06,35,13.50
2006,05,31,06,36,13.50
2006,05,31,06,37,13.60
2006,05,31,06,38,13.60
2006,05,31,06,39,13.60
2006,05,31,06,40,13.60
2006,05,31,06,41,13.60
2006,05,31,06,42,13.60
2006,05,31,06,43,13.70
2006,05,31,06,44,13.70
2006,05,31,06,45,13.70
2006,05,31,06,46,13.80
2006,05,31,06,47,13.90
2006,05,31,06,48,13.90
2006,05,31,06,49,14.00
2006,05,31,06,50,14.00
2006,05,31,06,51,14.00
2006,05,31,06,52,14.00
2006,05,31,06,53,14.00
2006,05,31,06,54,14.00
2006,05,31,06,55,14.00
2006,05,31,06,56,14.00
2006,05,31,06,57,14.00
2006,05,31,06,58,14.00
2006,05,31,06,59,14.00
2006,05,31,07,00,14.10
2006,05,31,07,01,14.10
2006,05,31,07,02,14.10
2006,05,31,07,03,14.20
2006,05,31,07,04,14.20
2006,05,31,07,05,14.20
2006,05,31,07,06,14.20
2006,05,31,07,07,14.30
2006,05,31,07,08,14.30
2006,05,31,07,09,14.40
2006,05,31,07,10,14.40
2006,05,31,07,11,14.50
2006,05,31,07,12,14.50
2006,05,31,07,13,14.60
2006,05,31,07,14,14.60
2006,05,31,07,15,14.60
2006,05,31,07,16,14.60
2006,05,31,07,17,14.70
2006,05,31,07,18,14.70
2006,05,31,07,19,14.70
2006,05,31,07,20,14.70
2006,05,31,07,21,14.80
2006,05,31,07,22,14.80
2006,05,31,07,23,14.80
2006,05,31,07,24,14.80
2006,05,31,07,25,14.80
2006,05,31,07,26,14.80
2006,05,31,07,27,14.80
2006,05,31,07,28,14.80
2006,05,31,07,29,14.80
2006,05,31,07,30,14.90
2006,05,31,07,31,14.90
2006,05,31,07,32,14.90
2006,05,31,07,33,14.90
2006,05,31,07,34,15.00
2006,05,31,07,35,15.00
2006,05,31,07,36,15.00
2006,05,31,07,37,15.00
2006,05,31,07,38,15.00
2006,05,31,07,39,15.00
2006,05,31,07,40,15.10
2006,05,31,07,41,15.10
2006,05,31,07,42,15.10
2006,05,31,07,43,15.10
2006,05,31,07,44,15.20
2006,05,31,07,45,15.20
2006,05,31,07,46,15.20
2006,05,31,07,47,15.20
2006,05,31,07,48,15.20
2006,05,31,07,49,15.20
2006,05,31,07,50,15.20
2006,05,31,07,51,15.20
2006,05,31,07,52,15.30
2006,05,31,07,53,15.30
2006,05,31,07,54,15.30
2006,05,31,07,55,15.30
2006,05,31,07,56,15.30
2006,05,31,07,57,15.40
2006,05,31,07,58,15.40
2006,05,31,07,59,15.50
2006,05,31,08,00,15.50
2006,05,31,08,01,15.50
2006,05,31,08,02,15.50
2006,05,31,08,03,15.50
2006,05,31,08,04,15.50
2006,05,31,08,05,15.50
2006,05,31,08,06,15.50
2006,05,31,08,07,15.60
2006,05,31,08,08,15.60
2006,05,31,08,09,15.60
2006,05,31,08,10,15.70
2006,05,31,08,11,15.70
2006,05,31,08,12,15.80
2006,05,31,08,13,15.80
2006,05,31,08,14,15.80
2006,05,31,08,15,15.80
2006,05,31,08,16,15.80
2006,05,31,08,17,15.70
2006,05,31,08,18,15.70
2006,05,31,08,19,15.70
2006,05,31,08,20,15.70
2006,05,31,08,21,15.70
2006,05,31,08,22,15.70
2006,05,31,08,23,15.70
2006,05,31,08,24,15.70
2006,05,31,08,25,15.80
2006,05,31,08,26,15.80
2006,05,31,08,27,15.80
2006,05,31,08,28,15.80
2006,05,31,08,29,15.80
2006,05,31,08,30,15.80
2006,05,31,08,31,15.80
2006,05,31,08,32,15.80
2006,05,31,08,33,15.80
2006,05,31,08,34,15.80
2006,05,31,08,35,15.80
2006,05,31,08,36,15.80
2006,05,31,08,37,15.80
2006,05,31,08,38,15.80
2006,05,31,08,39,15.80
2006,05,31,08,40,15.80
2006,05,31,08,41,15.80
2006,05,31,08,42,15.80
2006,05,31,08,43,15.90
2006,05,31,08,44,15.90
2006,05,31,08,45,16.00
2006,05,31,08,46,16.10
2006,05,31,08,47,16.10
2006,05,31,08,48,16.10
2006,05,31,08,49,16.10
2006,05,31,08,50,16.10
2006,05,31,08,51,16.20
2006,05,31,08,52,16.20
2006,05,31,08,53,16.20
2006,05,31,08,54,16.10
2006,05,31,08,55,16.20
2006,05,31,08,56,16.20
2006,05,31,08,57,16.20
2006,05,31,08,58,16.30
2006,05,31,08,59,16.30
2006,05,31,09,00,16.30
2006,05,31,09,01,16.30
2006,05,31,09,02,16.30
2006,05,31,09,03,16.50
2006,05,31,09,04,16.60
2006,05,31,09,05,16.60
2006,05,31,09,06,16.70
2006,05,31,09,07,16.70
2006,05,31,09,08,16.70
2006,05,31,09,09,16.80
2006,05,31,09,10,16.90
2006,05,31,09,11,17.00
2006,05,31,09,12,17.00
2006,05,31,09,13,17.10
2006,05,31,09,14,17.00
2006,05,31,09,15,17.00
2006,05,31,09,16,17.00
2006,05,31,09,17,17.00
2006,05,31,09,18,17.10
2006,05,31,09,19,17.20
2006,05,31,09,20,17.20
2006,05,31,09,21,17.20
2006,05,31,09,22,17.20
2006,05,31,09,23,17.20
2006,05,31,09,24,17.20
2006,05,31,09,25,17.20
2006,05,31,09,26,17.20
2006,05,31,09,27,17.10
2006,05,31,09,28,17.10
2006,05,31,09,29,17.20
2006,05,31,09,30,17.20
2006,05,31,09,31,17.10
2006,05,31,09,32,17.20
2006,05,31,09,33,17.30
2006,05,31,09,34,17.30
2006,05,31,09,35,17.40
2006,05,31,09,36,17.50
2006,05,31,09,37,17.50
2006,05,31,09,38,17.50
2006,05,31,09,39,17.50
2006,05,31,09,40,17.50
2006,05,31,09,41,17.70
2006,05,31,09,42,17.80
2006,05,31,09,43,17.90
2006,05,31,09,44,17.90
2006,05,31,09,45,17.90
2006,05,31,09,46,18.00
2006,05,31,09,47,18.10
2006,05,31,09,48,18.00
2006,05,31,09,49,17.80
2006,05,31,09,50,17.70
2006,05,31,09,51,17.80
2006,05,31,09,52,17.80
2006,05,31,09,53,17.90
2006,05,31,09,54,17.90
2006,05,31,09,55,18.00
2006,05,31,09,56,18.10
2006,05,31,09,57,18.20
2006,05,31,09,58,18.20
2006,05,31,09,59,18.20
2006,05,31,10,00,18.30
2006,05,31,10,01,18.40
2006,05,31,10,02,18.40
2006,05,31,10,03,18.40
2006,05,31,10,04,18.40
2006,05,31,10,05,18.40
2006,05,31,10,06,18.40
2006,05,31,10,07,18.50
2006,05,31,10,08,18.50
2006,05,31,10,09,18.50
2006,05,31,10,10,18.50
2006,05,31,10,11,18.40
2006,05,31,10,12,18.40
2006,05,31,10,13,18.40
2006,05,31,10,14,18.30
2006,05,31,10,15,18.40
2006,05,31,10,16,18.50
2006,05,31,10,17,18.50
2006,05,31,10,18,18.50
2006,05,31,10,19,18.50
2006,05,31,10,20,18.50
2006,05,31,10,21,18.50
2006,05,31,10,22,18.50
2006,05,31,10,23,18.50
2006,05,31,10,24,18.50
2006,05,31,10,25,18.50
2006,05,31,10,26,18.50
2006,05,31,10,27,18.50
2006,05,31,10,42,18.60
2006,05,31,10,43,18.70
2006,05,31,10,44,18.80
2006,05,31,10,45,18.80
2006,05,31,10,46,18.80
2006,05,31,10,47,18.80
2006,05,31,10,48,18.80
2006,05,31,10,49,18.70
2006,05,31,10,50,18.80
2006,05,31,10,51,18.80
2006,05,31,10,52,18.80
2006,05,31,10,53,18.90
2006,05,31,10,54,18.90
2006,05,31,10,55,18.90
2006,05,31,10,56,18.90
2006,05,31,10,57,19.00
2006,05,31,10,58,19.10
2006,05,31,10,59,19.20
2006,05,31,11,00,19.20
2006,05,31,11,01,19.20
2006,05,31,11,02,19.20
2006,05,31,11,03,19.20
2006,05,31,11,04,19.20
2006,05,31,11,05,19.60
2006,05,31,11,06,19.60
2006,05,31,11,07,19.60
2006,05,31,11,08,19.70
2006,05,31,11,09,19.70
2006,05,31,11,10,19.60
2006,05,31,11,11,19.60
2006,05,31,11,12,19.50
2006,05,31,11,13,19.60
2006,05,31,11,14,19.60
2006,05,31,11,15,19.60
2006,05,31,11,16,19.70
2006,05,31,11,17,19.70
2006,05,31,11,18,19.70
2006,05,31,11,19,19.80
2006,05,31,11,20,19.80
2006,05,31,11,21,19.80
2006,05,31,11,22,19.80
2006,05,31,11,23,19.80
2006,05,31,11,24,19.90
2006,05,31,11,25,19.90
2006,05,31,11,26,19.90
2006,05,31,11,27,19.90
2006,05,31,11,28,19.90
2006,05,31,11,29,19.90
2006,05,31,11,30,19.90
2006,05,31,11,31,19.90
2006,05,31,11,32,20.00
2006,05,31,11,33,20.10
2006,05,31,11,34,20.10
2006,05,31,11,35,20.10
2006,05,31,11,36,20.10
2006,05,31,11,37,20.10
2006,05,31,11,38,20.00
2006,05,31,11,39,19.90
2006,05,31,11,40,19.80
2006,05,31,11,41,19.80
2006,05,31,11,42,19.80
2006,05,31,11,43,19.90
2006,05,31,11,44,19.90
2006,05,31,11,45,19.90
2006,05,31,11,46,19.90
2006,05,31,11,47,19.80
2006,05,31,11,48,19.80
2006,05,31,11,49,19.90
2006,05,31,11,50,20.00
2006,05,31,11,51,20.10
2006,05,31,11,52,20.10
2006,05,31,11,53,20.20
2006,05,31,11,54,20.20
2006,05,31,11,55,20.20
2006,05,31,11,56,20.20
2006,05,31,11,57,20.20
2006,05,31,11,58,20.20
2006,05,31,11,59,20.20
2006,05,31,12,00,20.20
2006,05,31,12,01,20.30
2006,05,31,12,02,20.30
2006,05,31,12,03,20.40
2006,05,31,12,04,20.40
2006,05,31,12,05,20.40
2006,05,31,12,06,20.30
2006,05,31,12,07,20.20
2006,05,31,12,08,20.20
2006,05,31,12,09,20.20
2006,05,31,12,10,20.10
2006,05,31,12,11,19.90
2006,05,31,12,12,19.90
2006,05,31,12,13,19.90
2006,05,31,12,14,19.90
2006,05,31,12,15,19.90
2006,05,31,12,16,19.90
2006,05,31,12,17,19.90
2006,05,31,12,18,19.90
2006,05,31,12,19,19.80
2006,05,31,12,20,19.80
2006,05,31,12,21,19.80
2006,05,31,12,22,19.80
2006,05,31,12,23,19.90
2006,05,31,12,24,19.90
2006,05,31,12,25,19.90
2006,05,31,12,26,19.80
2006,05,31,12,27,19.70
2006,05,31,12,28,19.70
2006,05,31,12,29,19.70
2006,05,31,12,30,19.70
2006,05,31,12,31,19.70
2006,05,31,12,32,19.70
2006,05,31,12,33,19.80
2006,05,31,12,34,19.80
2006,05,31,12,35,19.80
2006,05,31,12,36,19.90
2006,05,31,12,37,19.90
2006,05,31,12,38,19.90
2006,05,31,12,39,19.90
2006,05,31,12,40,19.80
2006,05,31,12,41,19.80
2006,05,31,12,42,19.80
2006,05,31,12,43,19.80
2006,05,31,12,44,19.90
2006,05,31,12,45,20.00
2006,05,31,12,46,20.10
2006,05,31,12,47,20.20
2006,05,31,12,48,20.20
2006,05,31,12,49,20.30
2006,05,31,12,50,20.40
2006,05,31,12,51,20.50
2006,05,31,12,52,20.50
2006,05,31,12,53,20.50
2006,05,31,12,54,20.50
2006,05,31,12,55,20.50
2006,05,31,12,56,20.60
2006,05,31,12,57,20.60
2006,05,31,12,58,20.60
2006,05,31,12,59,20.60
2006,05,31,13,00,20.70
2006,05,31,13,01,20.70
2006,05,31,13,02,20.70
2006,05,31,13,03,20.60
2006,05,31,13,04,20.60
2006,05,31,13,05,20.50
2006,05,31,13,06,20.50
2006,05,31,13,07,20.50
2006,05,31,13,08,20.40
2006,05,31,13,09,20.40
2006,05,31,13,10,20.40
2006,05,31,13,11,20.50
2006,05,31,13,12,20.60
2006,05,31,13,13,20.60
2006,05,31,13,14,20.60
2006,05,31,13,15,20.50
2006,05,31,13,16,20.50
2006,05,31,13,17,20.50
2006,05,31,13,18,20.40
2006,05,31,13,19,20.40
2006,05,31,13,20,20.30
2006,05,31,13,21,20.30
2006,05,31,13,22,20.30
2006,05,31,13,23,20.30
2006,05,31,13,24,20.40
2006,05,31,13,25,20.50
2006,05,31,13,26,20.60
2006,05,31,13,27,20.70
2006,05,31,13,28,20.70
2006,05,31,13,29,20.70
2006,05,31,13,30,20.70
2006,05,31,13,31,20.80
2006,05,31,13,32,20.80
2006,05,31,13,33,20.80
2006,05,31,13,34,20.80
2006,05,31,13,35,20.80
2006,05,31,13,36,20.80
2006,05,31,13,37,20.80
2006,05,31,13,38,20.90
2006,05,31,13,39,21.00
2006,05,31,13,40,21.00
2006,05,31,13,41,21.20
2006,05,31,13,42,21.20
2006,05,31,13,43,21.30
2006,05,31,13,44,21.30
2006,05,31,13,45,21.30
2006,05,31,13,46,21.30
2006,05,31,13,47,21.40
2006,05,31,13,48,21.40
2006,05,31,13,49,21.40
2006,05,31,13,50,21.50
2006,05,31,13,51,21.60
2006,05,31,13,52,21.60
2006,05,31,13,53,21.60
2006,05,31,13,54,21.60
2006,05,31,13,55,21.60
2006,05,31,13,56,21.60
2006,05,31,13,57,21.60
2006,05,31,13,58,21.60
2006,05,31,13,59,21.70
2006,05,31,14,00,21.70
2006,05,31,14,01,21.80
2006,05,31,14,02,21.80
2006,05,31,14,03,21.80
2006,05,31,14,04,21.80
2006,05,31,14,05,21.80
2006,05,31,14,06,21.80
2006,05,31,14,07,21.80
2006,05,31,14,08,21.80
2006,05,31,14,09,21.80
2006,05,31,14,10,21.80
2006,05,31,14,11,21.80
2006,05,31,14,12,21.80
2006,05,31,14,13,21.80
2006,05,31,14,14,21.80
2006,05,31,14,15,21.60
2006,05,31,14,16,21.60
2006,05,31,14,17,21.60
2006,05,31,14,18,21.60
2006,05,31,14,19,21.60
2006,05,31,14,20,21.60
2006,05,31,14,21,21.70
2006,05,31,14,22,21.70
2006,05,31,14,23,21.70
2006,05,31,14,24,21.70
2006,05,31,14,25,21.70
2006,05,31,14,26,21.70
2006,05,31,14,27,21.70
2006,05,31,14,28,21.70
2006,05,31,14,29,21.80
2006,05,31,14,30,21.80
2006,05,31,14,31,21.90
2006,05,31,14,32,21.90
2006,05,31,14,33,21.90
2006,05,31,14,34,21.90
2006,05,31,14,35,21.90
2006,05,31,14,36,21.90
2006,05,31,14,37,21.90
2006,05,31,14,38,22.00
2006,05,31,14,39,22.00
2006,05,31,14,40,22.00
2006,05,31,14,41,21.80
2006,05,31,14,42,21.40
2006,05,31,14,43,20.90
2006,05,31,14,44,20.40
2006,05,31,14,45,19.90
2006,05,31,14,46,19.50
2006,05,31,14,47,19.40
2006,05,31,14,48,19.40
2006,05,31,14,49,19.30
2006,05,31,14,50,18.50
2006,05,31,14,51,18.30
2006,05,31,14,52,18.00
2006,05,31,14,53,17.90
2006,05,31,14,54,17.60
2006,05,31,14,55,17.40
2006,05,31,14,56,17.30
2006,05,31,14,57,17.30
2006,05,31,14,58,17.30
2006,05,31,14,59,17.20
2006,05,31,15,00,17.20
2006,05,31,15,01,17.20
2006,05,31,15,02,17.10
2006,05,31,15,03,17.10
2006,05,31,15,04,17.10
2006,05,31,15,05,17.00
2006,05,31,15,06,17.00
2006,05,31,15,07,17.00
2006,05,31,15,08,17.00
2006,05,31,15,09,16.90
2006,05,31,15,10,16.80
2006,05,31,15,11,16.80
2006,05,31,15,12,16.70
2006,05,31,15,13,16.70
2006,05,31,15,14,16.70
2006,05,31,15,15,16.70
2006,05,31,15,16,16.70
2006,05,31,15,17,16.60
2006,05,31,15,18,16.60
2006,05,31,15,19,16.40
2006,05,31,15,20,16.50
2006,05,31,15,21,16.60
2006,05,31,15,22,16.60
2006,05,31,15,23,16.60
2006,05,31,15,24,16.60
2006,05,31,15,25,16.50
2006,05,31,15,26,16.40
2006,05,31,15,27,16.40
2006,05,31,15,28,16.40
2006,05,31,15,29,16.40
2006,05,31,15,30,16.40
2006,05,31,15,31,16.40
2006,05,31,15,32,16.50
2006,05,31,15,33,16.60
2006,05,31,15,34,16.60
2006,05,31,15,35,16.70
2006,05,31,15,36,16.70
2006,05,31,15,37,16.80
2006,05,31,15,38,16.80
2006,05,31,15,39,16.90
2006,05,31,15,40,17.00
2006,05,31,15,41,17.00
2006,05,31,15,42,17.00
2006,05,31,15,43,17.10
2006,05,31,15,44,17.20
2006,05,31,15,45,17.20
2006,05,31,15,46,17.20
2006,05,31,15,47,17.20
2006,05,31,15,48,17.30
2006,05,31,15,49,17.30
2006,05,31,15,50,17.30
2006,05,31,15,51,17.30
2006,05,31,15,52,17.30
2006,05,31,15,53,17.30
2006,05,31,15,54,17.40
2006,05,31,15,55,17.40
2006,05,31,15,56,17.40
2006,05,31,15,57,17.40
2006,05,31,15,58,17.50
2006,05,31,15,59,17.50
2006,05,31,16,00,17.50
2006,05,31,16,01,17.60
2006,05,31,16,02,17.60
2006,05,31,16,03,17.60
2006,05,31,16,04,17.60
2006,05,31,16,05,17.60
2006,05,31,16,06,17.70
2006,05,31,16,07,17.70
2006,05,31,16,08,17.70
2006,05,31,16,09,17.70
2006,05,31,16,10,17.70
2006,05,31,16,11,17.70
2006,05,31,16,12,17.70
2006,05,31,16,13,17.70
2006,05,31,16,14,17.70
2006,05,31,16,15,17.80
2006,05,31,16,16,17.80
2006,05,31,16,17,17.80
2006,05,31,16,18,17.80
2006,05,31,16,19,17.80
2006,05,31,16,20,17.80
2006,05,31,16,21,17.80
2006,05,31,16,22,17.90
2006,05,31,16,23,17.90
2006,05,31,16,24,17.90
2006,05,31,16,25,17.90
2006,05,31,16,26,17.90
2006,05,31,16,27,17.90
2006,05,31,16,28,17.90
2006,05,31,16,29,17.90
2006,05,31,16,30,17.90
2006,05,31,16,31,17.90
2006,05,31,16,32,17.90
2006,05,31,16,33,17.90
2006,05,31,16,34,17.90
2006,05,31,16,35,17.90
2006,05,31,16,36,17.90
2006,05,31,16,37,17.90
2006,05,31,16,38,17.90
2006,05,31,16,39,17.80
2006,05,31,16,40,17.80
2006,05,31,16,41,17.80
2006,05,31,16,42,17.80
2006,05,31,16,43,17.80
2006,05,31,16,44,17.80
2006,05,31,16,45,17.70
2006,05,31,16,46,17.70
2006,05,31,16,47,17.70
2006,05,31,16,48,17.70
2006,05,31,16,49,17.70
2006,05,31,16,50,17.70
2006,05,31,16,51,17.70
2006,05,31,16,52,17.60
2006,05,31,16,53,17.50
2006,05,31,16,54,17.50
2006,05,31,16,55,17.40
2006,05,31,16,56,17.40
2006,05,31,16,57,17.30
2006,05,31,16,58,17.30
2006,05,31,16,59,17.30
2006,05,31,17,00,17.30
2006,05,31,17,01,17.30
2006,05,31,17,02,17.30
2006,05,31,17,03,17.30
2006,05,31,17,04,17.30
2006,05,31,17,05,17.30
2006,05,31,17,06,17.30
2006,05,31,17,07,17.30
2006,05,31,17,08,17.30
2006,05,31,17,09,17.30
2006,05,31,17,10,17.30
2006,05,31,17,11,17.30
2006,05,31,17,12,17.30
2006,05,31,17,13,17.30
2006,05,31,17,14,17.30
2006,05,31,17,15,17.30
2006,05,31,17,16,17.30
2006,05,31,17,17,17.30
2006,05,31,17,18,17.30
2006,05,31,17,19,17.30
2006,05,31,17,20,17.30
2006,05,31,17,21,17.30
2006,05,31,17,22,17.30
2006,05,31,17,23,17.30
2006,05,31,17,24,17.30
2006,05,31,17,25,17.30
2006,05,31,17,26,17.30
2006,05,31,17,27,17.30
2006,05,31,17,28,17.30
2006,05,31,17,29,17.30
2006,05,31,17,30,17.30
2006,05,31,17,31,17.30
2006,05,31,17,32,17.30
2006,05,31,17,33,17.30